owner,sensor,date,latitude,longitude,vertical_datum,wind_speed,wind_to_direction,wind_speed_of_gust,qcFlag 
COMPS,ioos:station:USF.COMPS:C10:1,2014-12-01T00:05:00Z,27.1690,-82.9260,3.0,5.949,29.005,7.217,'1111122,1111122,1111122' 
COMPS,ioos:station:USF.COMPS:C10:1,2014-12-01T00:35:00Z,27.1690,-82.9260,3.0,5.148,48.309,6.123,'1111122,1111122,1111122' 
COMPS,ioos:station:USF.COMPS:C10:1,2014-12-01T01:05:00Z,27.1690,-82.9260,3.0,4.208,52.51,5.233,'1111122,1111122,1111122' 
COMPS,ioos:station:USF.COMPS:C10:1,2014-12-01T01:35:00Z,27.1690,-82.9260,3.0,3.958,67.758,5.06,'1111122,1111122,1111122' 
COMPS,ioos:station:USF.COMPS:C10:1,2014-12-01T02:05:00Z,27.1690,-82.9260,3.0,5.61,76.856,7.073,'1111122,1111122,1111122' 
COMPS,ioos:station:USF.COMPS:C10:1,2014-12-01T02:35:00Z,27.1690,-82.9260,3.0,6.642,82.411,7.817,'1111122,1111122,1111122' 
COMPS,ioos:station:USF.COMPS:C10:1,2014-12-01T03:05:00Z,27.1690,-82.9260,3.0,7.01,84.848,8.417,'1111122,1111122,1111122' 
COMPS,ioos:station:USF.COMPS:C10:1,2014-12-01T03:35:00Z,27.1690,-82.9260,3.0,6.664,86.957,8.057,'1111122,1111122,1111122' 
COMPS,ioos:station:USF.COMPS:C10:1,2014-12-01T04:05:00Z,27.1690,-82.9260,3.0,6.525,83.124,7.86,'1111122,1111122,1111122' 
COMPS,ioos:station:USF.COMPS:C10:1,2014-12-01T04:35:00Z,27.1690,-82.9260,3.0,6.507,81.072,8.123,'1111122,1111122,1111122' 
COMPS,ioos:station:USF.COMPS:C10:1,2014-12-01T05:05:00Z,27.1690,-82.9260,3.0,6.175,75.617,7.91,'1111122,1111122,1111122' 
COMPS,ioos:station:USF.COMPS:C10:1,2014-12-01T05:35:00Z,27.1690,-82.9260,3.0,6.372,72.931,7.537,'1111122,1111122,1111122' 
COMPS,ioos:station:USF.COMPS:C10:1,2014-12-01T06:05:00Z,27.1690,-82.9260,3.0,6.216,72.584,7.62,'1111122,1111122,1111122' 
COMPS,ioos:station:USF.COMPS:C10:1,2014-12-01T06:35:00Z,27.1690,-82.9260,3.0,6.487,70.502,7.653,'1111122,1111122,1111122' 
COMPS,ioos:station:USF.COMPS:C10:1,2014-12-01T07:05:00Z,27.1690,-82.9260,3.0,6.207,75.39,7.607,'1111122,1111122,1111122' 
COMPS,ioos:station:USF.COMPS:C10:1,2014-12-01T07:35:00Z,27.1690,-82.9260,3.0,5.922,73.797,7.033,'1111122,1111122,1111122' 
COMPS,ioos:station:USF.COMPS:C10:1,2014-12-01T08:05:00Z,27.1690,-82.9260,3.0,5.281,86.048,6.5,'1111122,1111122,1111122' 
COMPS,ioos:station:USF.COMPS:C10:1,2014-12-01T08:35:00Z,27.1690,-82.9260,3.0,6.413,82.324,7.43,'1111122,1111122,1111122' 
COMPS,ioos:station:USF.COMPS:C10:1,2014-12-01T09:05:00Z,27.1690,-82.9260,3.0,6.398,80.667,8.293,'1111122,1111122,1111122' 
COMPS,ioos:station:USF.COMPS:C10:1,2014-12-01T09:35:00Z,27.1690,-82.9260,3.0,5.412,87.043,6.613,'1111122,1111122,1111122' 
COMPS,ioos:station:USF.COMPS:C10:1,2014-12-01T10:05:00Z,27.1690,-82.9260,3.0,5.957,84.587,7.64,'1111122,1111122,1111122' 
COMPS,ioos:station:USF.COMPS:C10:1,2014-12-01T10:35:00Z,27.1690,-82.9260,3.0,5.458,92.799,7.17,'1111122,1111122,1111122' 
COMPS,ioos:station:USF.COMPS:C10:1,2014-12-01T11:05:00Z,27.1690,-82.9260,3.0,5.972,83.911,7.167,'1111122,1111122,1111122' 
COMPS,ioos:station:USF.COMPS:C10:1,2014-12-01T11:35:00Z,27.1690,-82.9260,3.0,5.822,80.58,7.317,'1111122,1111122,1111122' 
COMPS,ioos:station:USF.COMPS:C10:1,2014-12-01T12:05:00Z,27.1690,-82.9260,3.0,5.74,75.989,7.59,'1111122,1111122,1111122' 
COMPS,ioos:station:USF.COMPS:C10:1,2014-12-01T12:35:00Z,27.1690,-82.9260,3.0,3.854,74.856,5.683,'1111122,1111122,1111122' 
COMPS,ioos:station:USF.COMPS:C10:1,2014-12-01T13:05:00Z,27.1690,-82.9260,3.0,3.772,67.123,5.033,'1111122,1111122,1111122' 
COMPS,ioos:station:USF.COMPS:C10:1,2014-12-01T13:35:00Z,27.1690,-82.9260,3.0,5.466,64.093,6.487,'1111122,1111122,1111122' 
COMPS,ioos:station:USF.COMPS:C10:1,2014-12-01T14:05:00Z,27.1690,-82.9260,3.0,4.651,44.674,5.77,'1111122,1111122,1111122' 
COMPS,ioos:station:USF.COMPS:C10:1,2014-12-01T14:35:00Z,27.1690,-82.9260,3.0,4.479,31.052,5.493,'1111122,1111122,1111122' 
COMPS,ioos:station:USF.COMPS:C10:1,2014-12-01T15:05:00Z,27.1690,-82.9260,3.0,4.118,26.98,4.89,'1111122,1111122,1111122' 
COMPS,ioos:station:USF.COMPS:C10:1,2014-12-01T15:35:00Z,27.1690,-82.9260,3.0,5.239,30.115,6.13,'1111122,1111122,1111122' 
COMPS,ioos:station:USF.COMPS:C10:1,2014-12-01T16:05:00Z,27.1690,-82.9260,3.0,5.494,36.742,6.383,'1111122,1111122,1111122' 
COMPS,ioos:station:USF.COMPS:C10:1,2014-12-01T16:35:00Z,27.1690,-82.9260,3.0,5.28,22.733,6.49,'1111122,1111122,1111122' 
COMPS,ioos:station:USF.COMPS:C10:1,2014-12-01T17:05:00Z,27.1690,-82.9260,3.0,4.674,31.571,5.433,'1111122,1111122,1111122' 
COMPS,ioos:station:USF.COMPS:C10:1,2014-12-01T17:35:00Z,27.1690,-82.9260,3.0,4.536,18.381,5.353,'1111122,1111122,1111122' 
COMPS,ioos:station:USF.COMPS:C10:1,2014-12-01T18:05:00Z,27.1690,-82.9260,3.0,4.735,12.802,5.65,'1111122,1111122,1111122' 
COMPS,ioos:station:USF.COMPS:C10:1,2014-12-01T18:35:00Z,27.1690,-82.9260,3.0,3.588,26.291,4.807,'1111122,1111122,1111122' 
COMPS,ioos:station:USF.COMPS:C10:1,2014-12-01T19:05:00Z,27.1690,-82.9260,3.0,4.305,16.227,5.11,'1111122,1111122,1111122' 
COMPS,ioos:station:USF.COMPS:C10:1,2014-12-01T19:35:00Z,27.1690,-82.9260,3.0,3.557,19.724,4.323,'1111122,1111122,1111122' 
COMPS,ioos:station:USF.COMPS:C10:1,2014-12-01T20:05:00Z,27.1690,-82.9260,3.0,3.596,8.771,4.27,'1111122,1111122,1111122' 
COMPS,ioos:station:USF.COMPS:C10:1,2014-12-01T20:35:00Z,27.1690,-82.9260,3.0,3.499,19.917,4.643,'1111122,1111122,1111122' 
COMPS,ioos:station:USF.COMPS:C10:1,2014-12-01T21:05:00Z,27.1690,-82.9260,3.0,4.279,15.344,5.467,'1111122,1111122,1111122' 
COMPS,ioos:station:USF.COMPS:C10:1,2014-12-01T21:35:00Z,27.1690,-82.9260,3.0,5.045,25.8,6.02,'1111122,1111122,1111122' 
COMPS,ioos:station:USF.COMPS:C10:1,2014-12-01T22:05:00Z,27.1690,-82.9260,3.0,6.081,32.034,7.103,'1111122,1111122,1111122' 
COMPS,ioos:station:USF.COMPS:C10:1,2014-12-01T22:35:00Z,27.1690,-82.9260,3.0,5.672,37.184,6.74,'1111122,1111122,1111122' 
COMPS,ioos:station:USF.COMPS:C10:1,2014-12-01T23:05:00Z,27.1690,-82.9260,3.0,5.369,37.028,6.43,'1111122,1111122,1111122' 
COMPS,ioos:station:USF.COMPS:C10:1,2014-12-01T23:35:00Z,27.1690,-82.9260,3.0,5.129,37.41,6.28,'1111122,1111122,1111122' 
COMPS,ioos:station:USF.COMPS:C10:1,2014-12-02T00:05:00Z,27.1690,-82.9260,3.0,6.191,41.868,7.317,'1111122,1111122,1111122' 
COMPS,ioos:station:USF.COMPS:C10:1,2014-12-02T00:35:00Z,27.1690,-82.9260,3.0,5.272,49.297,6.267,'1111122,1111122,1111122' 
COMPS,ioos:station:USF.COMPS:C10:1,2014-12-02T01:05:00Z,27.1690,-82.9260,3.0,4.122,53.922,4.953,'1111122,1111122,1111122' 
COMPS,ioos:station:USF.COMPS:C10:1,2014-12-02T01:35:00Z,27.1690,-82.9260,3.0,5.614,88.896,6.857,'1111122,1111122,1111122' 
COMPS,ioos:station:USF.COMPS:C10:1,2014-12-02T02:05:00Z,27.1690,-82.9260,3.0,6.863,82.538,8.527,'1111122,1111122,1111122' 
COMPS,ioos:station:USF.COMPS:C10:1,2014-12-02T02:35:00Z,27.1690,-82.9260,3.0,7.616,83.459,9.443,'1111122,1111122,1111122' 
COMPS,ioos:station:USF.COMPS:C10:1,2014-12-02T03:05:00Z,27.1690,-82.9260,3.0,6.919,76.579,8.717,'1111122,1111122,1111122' 
COMPS,ioos:station:USF.COMPS:C10:1,2014-12-02T03:35:00Z,27.1690,-82.9260,3.0,5.812,66.152,7.33,'1111122,1111122,1111122' 
COMPS,ioos:station:USF.COMPS:C10:1,2014-12-02T04:05:00Z,27.1690,-82.9260,3.0,6.406,75.502,8.217,'1111122,1111122,1111122' 
COMPS,ioos:station:USF.COMPS:C10:1,2014-12-02T04:35:00Z,27.1690,-82.9260,3.0,5.729,76.459,6.95,'1111122,1111122,1111122' 
COMPS,ioos:station:USF.COMPS:C10:1,2014-12-02T05:05:00Z,27.1690,-82.9260,3.0,5.696,80.639,7.107,'1111122,1111122,1111122' 
COMPS,ioos:station:USF.COMPS:C10:1,2014-12-02T05:35:00Z,27.1690,-82.9260,3.0,5.643,73.364,6.983,'1111122,1111122,1111122' 
COMPS,ioos:station:USF.COMPS:C10:1,2014-12-02T06:05:00Z,27.1690,-82.9260,3.0,6.382,75.037,7.48,'1111122,1111122,1111122' 
COMPS,ioos:station:USF.COMPS:C10:1,2014-12-02T06:35:00Z,27.1690,-82.9260,3.0,5.356,87.65,6.583,'1111122,1111122,1111122' 
COMPS,ioos:station:USF.COMPS:C10:1,2014-12-02T07:05:00Z,27.1690,-82.9260,3.0,4.835,61.415,6.087,'1111122,1111122,1111122' 
COMPS,ioos:station:USF.COMPS:C10:1,2014-12-02T07:35:00Z,27.1690,-82.9260,3.0,5.983,64.781,7.137,'1111122,1111122,1111122' 
COMPS,ioos:station:USF.COMPS:C10:1,2014-12-02T08:05:00Z,27.1690,-82.9260,3.0,6.025,68.0,7.623,'1111122,1111122,1111122' 
COMPS,ioos:station:USF.COMPS:C10:1,2014-12-02T08:35:00Z,27.1690,-82.9260,3.0,6.887,65.087,8.373,'1111122,1111122,1111122' 
COMPS,ioos:station:USF.COMPS:C10:1,2014-12-02T09:05:00Z,27.1690,-82.9260,3.0,6.636,58.335,7.95,'1111122,1111122,1111122' 
COMPS,ioos:station:USF.COMPS:C10:1,2014-12-02T09:35:00Z,27.1690,-82.9260,3.0,6.892,59.178,8.133,'1111122,1111122,1111122' 
COMPS,ioos:station:USF.COMPS:C10:1,2014-12-02T10:05:00Z,27.1690,-82.9260,3.0,6.193,68.27,7.37,'1111122,1111122,1111122' 
COMPS,ioos:station:USF.COMPS:C10:1,2014-12-02T10:35:00Z,27.1690,-82.9260,3.0,6.018,72.763,7.163,'1111122,1111122,1111122' 
COMPS,ioos:station:USF.COMPS:C10:1,2014-12-02T11:05:00Z,27.1690,-82.9260,3.0,6.098,67.207,7.473,'1111122,1111122,1111122' 
COMPS,ioos:station:USF.COMPS:C10:1,2014-12-02T11:35:00Z,27.1690,-82.9260,3.0,5.224,64.732,6.2,'1111122,1111122,1111122' 
COMPS,ioos:station:USF.COMPS:C10:1,2014-12-02T12:05:00Z,27.1690,-82.9260,3.0,5.675,60.569,6.867,'1111122,1111122,1111122' 
COMPS,ioos:station:USF.COMPS:C10:1,2014-12-02T12:35:00Z,27.1690,-82.9260,3.0,5.491,61.291,6.643,'1111122,1111122,1111122' 
COMPS,ioos:station:USF.COMPS:C10:1,2014-12-02T13:05:00Z,27.1690,-82.9260,3.0,5.878,63.96,7.42,'1111122,1111122,1111122' 
COMPS,ioos:station:USF.COMPS:C10:1,2014-12-02T13:35:00Z,27.1690,-82.9260,3.0,6.273,67.737,7.687,'1111122,1111122,1111122' 
COMPS,ioos:station:USF.COMPS:C10:1,2014-12-02T14:05:00Z,27.1690,-82.9260,3.0,6.962,68.086,8.557,'1111122,1111122,1111122' 
COMPS,ioos:station:USF.COMPS:C10:1,2014-12-02T14:35:00Z,27.1690,-82.9260,3.0,6.009,65.741,7.447,'1111122,1111122,1111122' 
COMPS,ioos:station:USF.COMPS:C10:1,2014-12-02T15:05:00Z,27.1690,-82.9260,3.0,5.173,54.743,6.1,'1111122,1111122,1111122' 
COMPS,ioos:station:USF.COMPS:C10:1,2014-12-02T15:35:00Z,27.1690,-82.9260,3.0,5.025,50.75,6.153,'1111122,1111122,1111122' 
COMPS,ioos:station:USF.COMPS:C10:1,2014-12-02T16:05:00Z,27.1690,-82.9260,3.0,4.794,54.778,5.843,'1111122,1111122,1111122' 
COMPS,ioos:station:USF.COMPS:C10:1,2014-12-02T16:35:00Z,27.1690,-82.9260,3.0,4.037,55.127,4.74,'1111122,1111122,1111122' 
COMPS,ioos:station:USF.COMPS:C10:1,2014-12-02T17:05:00Z,27.1690,-82.9260,3.0,3.564,53.236,4.437,'1111122,1111122,1111122' 
COMPS,ioos:station:USF.COMPS:C10:1,2014-12-02T17:35:00Z,27.1690,-82.9260,3.0,3.335,42.561,4.22,'1111122,1111122,1111122' 
COMPS,ioos:station:USF.COMPS:C10:1,2014-12-02T18:05:00Z,27.1690,-82.9260,3.0,3.935,39.691,4.623,'1111122,1111122,1111122' 
COMPS,ioos:station:USF.COMPS:C10:1,2014-12-02T18:35:00Z,27.1690,-82.9260,3.0,3.332,50.14,4.13,'1111122,1111122,1111122' 
COMPS,ioos:station:USF.COMPS:C10:1,2014-12-02T19:05:00Z,27.1690,-82.9260,3.0,2.805,45.086,3.667,'1111122,1111122,1111122' 
COMPS,ioos:station:USF.COMPS:C10:1,2014-12-02T19:35:00Z,27.1690,-82.9260,3.0,3.203,64.715,4.01,'1111122,1111122,1111122' 
COMPS,ioos:station:USF.COMPS:C10:1,2014-12-02T20:05:00Z,27.1690,-82.9260,3.0,5.562,62.098,7.01,'1111122,1111122,1111122' 
COMPS,ioos:station:USF.COMPS:C10:1,2014-12-02T20:35:00Z,27.1690,-82.9260,3.0,6.936,64.768,8.36,'1111122,1111122,1111122' 
COMPS,ioos:station:USF.COMPS:C10:1,2014-12-02T21:05:00Z,27.1690,-82.9260,3.0,5.126,68.914,6.353,'1111122,1111122,1111122' 
COMPS,ioos:station:USF.COMPS:C10:1,2014-12-02T21:35:00Z,27.1690,-82.9260,3.0,5.473,69.026,7.03,'1111122,1111122,1111122' 
COMPS,ioos:station:USF.COMPS:C10:1,2014-12-02T22:05:00Z,27.1690,-82.9260,3.0,5.268,69.038,6.213,'1111122,1111122,1111122' 
COMPS,ioos:station:USF.COMPS:C10:1,2014-12-02T22:35:00Z,27.1690,-82.9260,3.0,4.649,55.919,5.66,'1111122,1111122,1111122' 
COMPS,ioos:station:USF.COMPS:C10:1,2014-12-02T23:05:00Z,27.1690,-82.9260,3.0,4.365,54.135,5.253,'1111122,1111122,1111122' 
COMPS,ioos:station:USF.COMPS:C10:1,2014-12-02T23:35:00Z,27.1690,-82.9260,3.0,4.609,58.944,5.437,'1111122,1111122,1111122' 
COMPS,ioos:station:USF.COMPS:C10:1,2014-12-03T00:05:00Z,27.1690,-82.9260,3.0,4.596,50.755,5.587,'1111122,1111122,1111122' 
COMPS,ioos:station:USF.COMPS:C10:1,2014-12-03T00:35:00Z,27.1690,-82.9260,3.0,5.555,52.005,6.39,'1111122,1111122,1111122' 
COMPS,ioos:station:USF.COMPS:C10:1,2014-12-03T01:05:00Z,27.1690,-82.9260,3.0,5.705,59.77,6.943,'1111122,1111122,1111122' 
COMPS,ioos:station:USF.COMPS:C10:1,2014-12-03T01:35:00Z,27.1690,-82.9260,3.0,5.38,67.374,6.533,'1111122,1111122,1111122' 
COMPS,ioos:station:USF.COMPS:C10:1,2014-12-03T02:05:00Z,27.1690,-82.9260,3.0,5.162,57.617,6.547,'1111122,1111122,1111122' 
COMPS,ioos:station:USF.COMPS:C10:1,2014-12-03T02:35:00Z,27.1690,-82.9260,3.0,4.949,57.377,6.193,'1111122,1111122,1111122' 
COMPS,ioos:station:USF.COMPS:C10:1,2014-12-03T03:05:00Z,27.1690,-82.9260,3.0,5.411,60.989,6.76,'1111122,1111122,1111122' 
COMPS,ioos:station:USF.COMPS:C10:1,2014-12-03T03:35:00Z,27.1690,-82.9260,3.0,5.466,68.21,6.51,'1111122,1111122,1111122' 
COMPS,ioos:station:USF.COMPS:C10:1,2014-12-03T04:05:00Z,27.1690,-82.9260,3.0,5.763,71.571,7.093,'1111122,1111122,1111122' 
COMPS,ioos:station:USF.COMPS:C10:1,2014-12-03T04:35:00Z,27.1690,-82.9260,3.0,5.465,72.343,6.523,'1111122,1111122,1111122' 
COMPS,ioos:station:USF.COMPS:C10:1,2014-12-03T05:05:00Z,27.1690,-82.9260,3.0,5.402,70.437,6.537,'1111122,1111122,1111122' 
COMPS,ioos:station:USF.COMPS:C10:1,2014-12-03T05:35:00Z,27.1690,-82.9260,3.0,4.822,77.633,5.91,'1111122,1111122,1111122' 
COMPS,ioos:station:USF.COMPS:C10:1,2014-12-03T06:05:00Z,27.1690,-82.9260,3.0,5.352,75.756,6.353,'1111122,1111122,1111122' 
COMPS,ioos:station:USF.COMPS:C10:1,2014-12-03T06:35:00Z,27.1690,-82.9260,3.0,5.329,79.403,6.827,'1111122,1111122,1111122' 
COMPS,ioos:station:USF.COMPS:C10:1,2014-12-03T07:05:00Z,27.1690,-82.9260,3.0,5.829,74.906,7.01,'1111122,1111122,1111122' 
COMPS,ioos:station:USF.COMPS:C10:1,2014-12-03T07:35:00Z,27.1690,-82.9260,3.0,5.655,70.886,6.803,'1111122,1111122,1111122' 
COMPS,ioos:station:USF.COMPS:C10:1,2014-12-03T08:05:00Z,27.1690,-82.9260,3.0,5.66,66.247,6.813,'1111122,1111122,1111122' 
COMPS,ioos:station:USF.COMPS:C10:1,2014-12-03T08:35:00Z,27.1690,-82.9260,3.0,5.099,60.084,6.367,'1111122,1111122,1111122' 
COMPS,ioos:station:USF.COMPS:C10:1,2014-12-03T09:05:00Z,27.1690,-82.9260,3.0,4.947,71.363,6.5,'1111122,1111122,1111122' 
COMPS,ioos:station:USF.COMPS:C10:1,2014-12-03T09:35:00Z,27.1690,-82.9260,3.0,4.959,62.355,5.963,'1111122,1111122,1111122' 
COMPS,ioos:station:USF.COMPS:C10:1,2014-12-03T10:05:00Z,27.1690,-82.9260,3.0,5.42,63.492,6.493,'1111122,1111122,1111122' 
COMPS,ioos:station:USF.COMPS:C10:1,2014-12-03T10:35:00Z,27.1690,-82.9260,3.0,5.717,56.379,6.76,'1111122,1111122,1111122' 
COMPS,ioos:station:USF.COMPS:C10:1,2014-12-03T11:05:00Z,27.1690,-82.9260,3.0,6.395,55.816,7.677,'1111122,1111122,1111122' 
COMPS,ioos:station:USF.COMPS:C10:1,2014-12-03T11:35:00Z,27.1690,-82.9260,3.0,5.797,63.003,7.157,'1111122,1111122,1111122' 
COMPS,ioos:station:USF.COMPS:C10:1,2014-12-03T12:05:00Z,27.1690,-82.9260,3.0,6.102,71.242,7.66,'1111122,1111122,1111122' 
COMPS,ioos:station:USF.COMPS:C10:1,2014-12-03T12:35:00Z,27.1690,-82.9260,3.0,6.184,66.949,7.413,'1111122,1111122,1111122' 
COMPS,ioos:station:USF.COMPS:C10:1,2014-12-03T13:05:00Z,27.1690,-82.9260,3.0,6.014,61.564,7.32,'1111122,1111122,1111122' 
COMPS,ioos:station:USF.COMPS:C10:1,2014-12-03T13:35:00Z,27.1690,-82.9260,3.0,5.836,65.113,7.073,'1111122,1111122,1111122' 
COMPS,ioos:station:USF.COMPS:C10:1,2014-12-03T14:05:00Z,27.1690,-82.9260,3.0,5.63,69.692,6.627,'1111122,1111122,1111122' 
COMPS,ioos:station:USF.COMPS:C10:1,2014-12-03T14:35:00Z,27.1690,-82.9260,3.0,5.184,63.757,6.093,'1111122,1111122,1111122' 
COMPS,ioos:station:USF.COMPS:C10:1,2014-12-03T15:05:00Z,27.1690,-82.9260,3.0,4.64,57.64,5.56,'1111122,1111122,1111122' 
COMPS,ioos:station:USF.COMPS:C10:1,2014-12-03T15:35:00Z,27.1690,-82.9260,3.0,5.25,54.698,6.363,'1111122,1111122,1111122' 
COMPS,ioos:station:USF.COMPS:C10:1,2014-12-03T16:05:00Z,27.1690,-82.9260,3.0,4.305,51.738,5.2,'1111122,1111122,1111122' 
COMPS,ioos:station:USF.COMPS:C10:1,2014-12-03T16:35:00Z,27.1690,-82.9260,3.0,3.702,40.166,4.567,'1111122,1111122,1111122' 
COMPS,ioos:station:USF.COMPS:C10:1,2014-12-03T17:05:00Z,27.1690,-82.9260,3.0,3.838,16.631,4.61,'1111122,1111122,1111122' 
COMPS,ioos:station:USF.COMPS:C10:1,2014-12-03T17:35:00Z,27.1690,-82.9260,3.0,4.747,7.522,5.7,'1111122,1111122,1111122' 
COMPS,ioos:station:USF.COMPS:C10:1,2014-12-03T18:05:00Z,27.1690,-82.9260,3.0,4.882,10.998,6.063,'1111122,1111122,1111122' 
COMPS,ioos:station:USF.COMPS:C10:1,2014-12-03T18:35:00Z,27.1690,-82.9260,3.0,4.356,19.848,5.293,'1111122,1111122,1111122' 
COMPS,ioos:station:USF.COMPS:C10:1,2014-12-03T19:05:00Z,27.1690,-82.9260,3.0,4.13,23.051,5.07,'1111122,1111122,1111122' 
COMPS,ioos:station:USF.COMPS:C10:1,2014-12-03T19:35:00Z,27.1690,-82.9260,3.0,3.973,19.005,4.763,'1111122,1111122,1111122' 
COMPS,ioos:station:USF.COMPS:C10:1,2014-12-03T20:05:00Z,27.1690,-82.9260,3.0,4.17,7.393,5.15,'1111122,1111122,1111122' 
COMPS,ioos:station:USF.COMPS:C10:1,2014-12-03T20:35:00Z,27.1690,-82.9260,3.0,3.982,357.164,4.757,'1111122,1111122,1111122' 
COMPS,ioos:station:USF.COMPS:C10:1,2014-12-03T21:05:00Z,27.1690,-82.9260,3.0,4.869,4.995,6.167,'1111122,1111122,1111122' 
COMPS,ioos:station:USF.COMPS:C10:1,2014-12-03T21:35:00Z,27.1690,-82.9260,3.0,4.648,10.082,5.413,'1111122,1111122,1111122' 
COMPS,ioos:station:USF.COMPS:C10:1,2014-12-03T22:05:00Z,27.1690,-82.9260,3.0,4.822,14.497,6.157,'1111122,1111122,1111122' 
COMPS,ioos:station:USF.COMPS:C10:1,2014-12-03T22:35:00Z,27.1690,-82.9260,3.0,5.265,16.455,6.997,'1111122,1111122,1111122' 
COMPS,ioos:station:USF.COMPS:C10:1,2014-12-03T23:05:00Z,27.1690,-82.9260,3.0,5.032,19.15,6.067,'1111122,1111122,1111122' 
COMPS,ioos:station:USF.COMPS:C10:1,2014-12-03T23:35:00Z,27.1690,-82.9260,3.0,4.803,24.35,5.72,'1111122,1111122,1111122' 
COMPS,ioos:station:USF.COMPS:C10:1,2014-12-04T00:05:00Z,27.1690,-82.9260,3.0,4.447,31.416,5.43,'1111122,1111122,1111122' 
COMPS,ioos:station:USF.COMPS:C10:1,2014-12-04T00:35:00Z,27.1690,-82.9260,3.0,4.964,38.734,5.763,'1111122,1111122,1111122' 
COMPS,ioos:station:USF.COMPS:C10:1,2014-12-04T01:05:00Z,27.1690,-82.9260,3.0,4.469,43.266,5.257,'1111122,1111122,1111122' 
COMPS,ioos:station:USF.COMPS:C10:1,2014-12-04T01:35:00Z,27.1690,-82.9260,3.0,5.368,61.221,6.903,'1111122,1111122,1111122' 
COMPS,ioos:station:USF.COMPS:C10:1,2014-12-04T02:05:00Z,27.1690,-82.9260,3.0,5.905,68.79,6.943,'1111122,1111122,1111122' 
COMPS,ioos:station:USF.COMPS:C10:1,2014-12-04T02:35:00Z,27.1690,-82.9260,3.0,6.405,78.606,7.91,'1111122,1111122,1111122' 
COMPS,ioos:station:USF.COMPS:C10:1,2014-12-04T03:05:00Z,27.1690,-82.9260,3.0,6.345,74.445,7.527,'1111122,1111122,1111122' 
COMPS,ioos:station:USF.COMPS:C10:1,2014-12-04T03:35:00Z,27.1690,-82.9260,3.0,5.868,72.221,7.353,'1111122,1111122,1111122' 
COMPS,ioos:station:USF.COMPS:C10:1,2014-12-04T04:05:00Z,27.1690,-82.9260,3.0,5.804,69.623,7.09,'1111122,1111122,1111122' 
COMPS,ioos:station:USF.COMPS:C10:1,2014-12-04T04:35:00Z,27.1690,-82.9260,3.0,5.885,67.055,7.04,'1111122,1111122,1111122' 
COMPS,ioos:station:USF.COMPS:C10:1,2014-12-04T05:05:00Z,27.1690,-82.9260,3.0,5.518,61.621,6.527,'1111122,1111122,1111122' 
COMPS,ioos:station:USF.COMPS:C10:1,2014-12-04T05:35:00Z,27.1690,-82.9260,3.0,5.806,56.983,7.15,'1111122,1111122,1111122' 
COMPS,ioos:station:USF.COMPS:C10:1,2014-12-04T06:05:00Z,27.1690,-82.9260,3.0,6.696,60.799,8.427,'1111122,1111122,1111122' 
COMPS,ioos:station:USF.COMPS:C10:1,2014-12-04T06:35:00Z,27.1690,-82.9260,3.0,5.834,51.781,6.887,'1111122,1111122,1111122' 
COMPS,ioos:station:USF.COMPS:C10:1,2014-12-04T07:05:00Z,27.1690,-82.9260,3.0,5.435,49.762,7.037,'1111122,1111122,1111122' 
COMPS,ioos:station:USF.COMPS:C10:1,2014-12-04T07:35:00Z,27.1690,-82.9260,3.0,5.313,48.858,6.967,'1111122,1111122,1111122' 
COMPS,ioos:station:USF.COMPS:C10:1,2014-12-04T08:05:00Z,27.1690,-82.9260,3.0,5.608,48.496,6.79,'1111122,1111122,1111122' 
COMPS,ioos:station:USF.COMPS:C10:1,2014-12-04T08:35:00Z,27.1690,-82.9260,3.0,5.928,64.585,7.277,'1111122,1111122,1111122' 
COMPS,ioos:station:USF.COMPS:C10:1,2014-12-04T09:05:00Z,27.1690,-82.9260,3.0,5.398,65.819,7.023,'1111122,1111122,1111122' 
COMPS,ioos:station:USF.COMPS:C10:1,2014-12-04T09:35:00Z,27.1690,-82.9260,3.0,5.941,55.58,7.333,'1111122,1111122,1111122' 
COMPS,ioos:station:USF.COMPS:C10:1,2014-12-04T10:05:00Z,27.1690,-82.9260,3.0,5.625,53.918,7.15,'1111122,1111122,1111122' 
COMPS,ioos:station:USF.COMPS:C10:1,2014-12-04T10:35:00Z,27.1690,-82.9260,3.0,5.297,44.155,6.41,'1111122,1111122,1111122' 
COMPS,ioos:station:USF.COMPS:C10:1,2014-12-04T11:05:00Z,27.1690,-82.9260,3.0,5.28,38.003,6.23,'1111122,1111122,1111122' 
COMPS,ioos:station:USF.COMPS:C10:1,2014-12-04T11:35:00Z,27.1690,-82.9260,3.0,5.54,33.311,6.493,'1111122,1111122,1111122' 
COMPS,ioos:station:USF.COMPS:C10:1,2014-12-04T12:05:00Z,27.1690,-82.9260,3.0,5.914,42.072,7.267,'1111122,1111122,1111122' 
COMPS,ioos:station:USF.COMPS:C10:1,2014-12-04T12:35:00Z,27.1690,-82.9260,3.0,5.963,54.431,7.5,'1111122,1111122,1111122' 
COMPS,ioos:station:USF.COMPS:C10:1,2014-12-04T13:05:00Z,27.1690,-82.9260,3.0,6.828,56.913,8.19,'1111122,1111122,1111122' 
COMPS,ioos:station:USF.COMPS:C10:1,2014-12-04T13:35:00Z,27.1690,-82.9260,3.0,6.615,63.187,7.977,'1111122,1111122,1111122' 
COMPS,ioos:station:USF.COMPS:C10:1,2014-12-04T14:05:00Z,27.1690,-82.9260,3.0,6.788,69.607,8.243,'1111122,1111122,1111122' 
COMPS,ioos:station:USF.COMPS:C10:1,2014-12-04T14:35:00Z,27.1690,-82.9260,3.0,6.318,65.133,7.693,'1111122,1111122,1111122' 
COMPS,ioos:station:USF.COMPS:C10:1,2014-12-04T15:05:00Z,27.1690,-82.9260,3.0,6.309,63.26,7.39,'1111122,1111122,1111122' 
COMPS,ioos:station:USF.COMPS:C10:1,2014-12-04T15:35:00Z,27.1690,-82.9260,3.0,5.396,58.079,6.58,'1111122,1111122,1111122' 
COMPS,ioos:station:USF.COMPS:C10:1,2014-12-04T16:05:00Z,27.1690,-82.9260,3.0,4.508,48.196,5.59,'1111122,1111122,1111122' 
COMPS,ioos:station:USF.COMPS:C10:1,2014-12-04T16:35:00Z,27.1690,-82.9260,3.0,3.84,33.359,4.583,'1111122,1111122,1111122' 
COMPS,ioos:station:USF.COMPS:C10:1,2014-12-04T17:05:00Z,27.1690,-82.9260,3.0,4.002,13.044,4.787,'1111122,1111122,1111122' 
COMPS,ioos:station:USF.COMPS:C10:1,2014-12-04T17:35:00Z,27.1690,-82.9260,3.0,5.385,9.651,6.47,'1111122,1111122,1111122' 
COMPS,ioos:station:USF.COMPS:C10:1,2014-12-04T18:05:00Z,27.1690,-82.9260,3.0,5.568,15.689,6.99,'1111122,1111122,1111122' 
COMPS,ioos:station:USF.COMPS:C10:1,2014-12-04T18:35:00Z,27.1690,-82.9260,3.0,5.043,21.887,6.223,'1111122,1111122,1111122' 
COMPS,ioos:station:USF.COMPS:C10:1,2014-12-04T19:05:00Z,27.1690,-82.9260,3.0,4.901,18.794,5.973,'1111122,1111122,1111122' 
COMPS,ioos:station:USF.COMPS:C10:1,2014-12-04T19:35:00Z,27.1690,-82.9260,3.0,4.708,23.121,5.68,'1111122,1111122,1111122' 
COMPS,ioos:station:USF.COMPS:C10:1,2014-12-04T20:05:00Z,27.1690,-82.9260,3.0,4.265,22.894,5.43,'1111122,1111122,1111122' 
COMPS,ioos:station:USF.COMPS:C10:1,2014-12-04T20:35:00Z,27.1690,-82.9260,3.0,4.404,16.423,5.323,'1111122,1111122,1111122' 
COMPS,ioos:station:USF.COMPS:C10:1,2014-12-04T21:05:00Z,27.1690,-82.9260,3.0,5.272,23.297,6.323,'1111122,1111122,1111122' 
COMPS,ioos:station:USF.COMPS:C10:1,2014-12-04T21:35:00Z,27.1690,-82.9260,3.0,5.194,26.18,6.173,'1111122,1111122,1111122' 
COMPS,ioos:station:USF.COMPS:C10:1,2014-12-04T22:05:00Z,27.1690,-82.9260,3.0,5.275,6.618,6.083,'1111122,1111122,1111122' 
COMPS,ioos:station:USF.COMPS:C10:1,2014-12-04T22:35:00Z,27.1690,-82.9260,3.0,5.408,7.394,6.75,'1111122,1111122,1111122' 
COMPS,ioos:station:USF.COMPS:C10:1,2014-12-04T23:05:00Z,27.1690,-82.9260,3.0,4.941,14.24,5.917,'1111122,1111122,1111122' 
COMPS,ioos:station:USF.COMPS:C10:1,2014-12-04T23:35:00Z,27.1690,-82.9260,3.0,4.886,16.426,5.737,'1111122,1111122,1111122' 
COMPS,ioos:station:USF.COMPS:C10:1,2014-12-05T00:05:00Z,27.1690,-82.9260,3.0,4.669,29.178,5.51,'1111122,1111122,1111122' 
COMPS,ioos:station:USF.COMPS:C10:1,2014-12-05T00:35:00Z,27.1690,-82.9260,3.0,4.613,37.206,5.447,'1111122,1111122,1111122' 
COMPS,ioos:station:USF.COMPS:C10:1,2014-12-05T01:05:00Z,27.1690,-82.9260,3.0,4.994,63.471,6.233,'1111122,1111122,1111122' 